User: anonymous
Location: Unspecified
(0.0000°N, 0.0000°E)
Time: 09:18:14
(UTC+00:00)
Language:

FALCON 9 R/B - Orbit

View from above orbital plane
View from above orbital plane
View from above satellite
View from above satellite

Ground track
Ground track

The orbit data is extracted from the following two-line orbital elements,

1 37253U 10066K   14202.81613385  .00004539  00000-0  53323-3 0  1203
2 37253 034.5003 116.4224 4356132 088.9467 319.0976 06.74379640 87896
Epoch (UTC): 21 July 2014 19:35:13
Eccentricity: 0.4356132
inclination: 34.5003°
perigee height: 301 km
apogee height: 10611 km
right ascension of ascending node: 116.4224°
argument of perigee: 88.9467°
revolutions per day: 6.74379640
mean anomaly at epoch: 319.0976°
orbit number at epoch: 8789

The dashed part of the orbit path shows where the satellite is in the earth's shadow,  

DLR